Wind_Speed
15 19 20 20 19 18 16 15 15 15 15 15 17 18 19 19 18 17 16 12 8 8 10 9 8 7 7 7 6 5 5 4 3 2 2 1 1 1 1 1 1 2 2 2 2 1 1 1 1 1 1 2 2 2 2 2 2 1 1 1 2 2 2 3 3 4 4 5 5 6 6 7 7 8 9 9 10 10 10 11 12 12 13 12 12
13 16 17 17 16 15 14 14 13 14 13 13 14 16 18 19 19 18 17 15 11 10 13 13 11 10 10 9 9 8 7 6 5 5 5 5 5 5 5 5 5 5 4 4 4 4 4 3 3 3 3 4 4 4 4 4 4 4 4 4 4 5 5 6 7 7 8 8 9 9 10 10 11 11 12 13 13 14 14 15 15 16 17 17 16
11 13 14 13 12 11 11 11 12 12 12 12 13 15 17 19 20 19 18 17 15 13 15 16 16 14 13 13 12 11 10 9 9 9 8 8 8 8 8 8 8 9 8 8 7 6 6 6 6 6 7 7 7 7 7 6 6 7 7 7 6 7 7 8 9 10 10 10 11 12 12 12 13 14 14 15 16 17 18 18 19 19 20 21 21
9 10 10 10 9 9 9 10 11 11 11 12 13 14 17 19 20 20 20 19 18 16 17 18 19 18 16 16 15 14 14 13 13 12 11 11 11 11 11 11 11 11 11 11 10 10 9 9 9 9 9 9 10 10 10 10 10 10 10 9 9 9 9 10 11 11 12 12 13 13 14 14 15 15 16 17 17 18 19 20 21 21 22 23 23
9 9 9 9 8 9 9 10 11 11 11 12 12 13 16 18 19 21 22 21 21 19 18 19 20 20 19 19 18 17 17 16 15 15 14 14 13 14 14 15 15 14 14 14 13 13 13 12 11 11 11 11 11 12 12 13 13 13 13 12 12 11 12 12 13 13 14 14 15 15 16 16 16 17 17 18 19 20 21 22 22 23 23 24 24
11 10 11 11 10 10 11 11 12 12 12 12 12 12 14 15 17 19 21 23 22 21 20 20 21 22 22 22 21 21 21 21 19 17 17 16 16 17 17 18 19 18 18 17 15 14 14 12 11 12 13 12 13 14 14 14 15 15 14 13 13 13 13 14 15 16 17 17 18 18 18 18 19 19 19 20 21 22 23 23 25 25 24 24 25
12 13 13 13 13 13 13 13 13 13 13 14 14 13 13 14 15 17 19 21 22 22 22 22 22 24 24 24 24 25 25 24 23 22 21 20 20 20 19 18 19 18 17 16 14 13 13 12 11 12 13 14 15 15 14 14 17 16 13 13 13 13 14 15 16 17 18 19 20 20 20 21 21 22 23 24 25 25 25 25 26 26 25 25 26
14 14 15 15 15 16 16 16 15 15 15 15 15 16 16 15 16 17 18 20 22 23 23 24 25 25 25 25 26 26 25 24 25 25 25 24 23 21 19 17 16 15 15 14 13 13 13 13 13 13 14 14 16 16 15 16 18 15 13 14 15 15 16 18 19 19 20 20 22 23 24 25 25 26 27 27 26 26 26 25 25 26 26 26 28
13 14 15 16 17 18 18 18 17 17 17 16 16 17 17 18 18 17 18 20 22 23 24 26 27 27 27 27 27 27 25 24 24 25 27 27 26 22 19 17 17 16 15 14 13 13 13 13 13 13 13 13 14 15 15 16 17 15 15 17 17 17 19 21 21 22 22 23 24 25 26 28 28 27 28 27 26 25 26 26 26 26 26 26 29
13 14 16 17 19 19 19 19 19 19 19 19 18 18 18 18 19 18 19 21 23 24 26 27 28 27 28 28 27 26 25 25 26 27 28 28 26 22 20 19 19 17 15 14 14 14 14 13 13 13 14 14 14 15 15 16 17 16 16 17 18 18 20 21 22 23 24 26 28 28 28 30 29 28 27 27 26 26 27 27 27 27 27 27 28
13 14 15 17 18 19 19 20 20 20 20 20 20 19 18 19 19 19 20 22 24 26 28 29 30 29 29 28 28 26 26 26 26 26 25 25 24 22 21 20 19 18 16 15 15 15 15 15 15 15 16 16 16 16 16 17 18 18 18 18 20 20 21 22 24 25 26 28 29 30 30 30 30 29 28 28 28 28 28 29 29 28 28 27 27
13 14 14 15 16 17 18 18 19 20 20 21 21 20 19 19 20 21 22 25 28 29 30 31 31 30 29 27 27 26 25 24 23 21 20 21 22 21 21 20 19 18 18 17 16 16 16 15 16 16 17 17 17 17 17 18 20 21 21 21 22 23 24 24 25 26 27 28 29 30 30 30 31 31 30 29 28 29 29 30 30 29 29 29 29
14 13 13 13 14 15 16 17 18 19 20 21 22 22 22 21 22 23 24 26 28 29 31 32 30 29 28 26 26 26 24 21 20 19 19 20 22 21 21 19 19 19 17 16 16 15 14 14 14 16 17 18 18 19 19 20 21 22 23 23 24 24 25 26 26 27 28 28 29 31 31 30 31 31 29 28 28 29 30 31 32 32 32 32 33
15 14 14 14 15 15 16 17 18 19 20 22 23 24 24 24 25 25 25 25 26 27 29 31 29 28 27 25 25 25 23 20 20 19 18 20 21 20 19 19 18 18 17 16 15 14 14 14 15 17 19 20 20 20 20 21 22 23 24 24 24 24 25 26 27 27 28 29 30 31 31 31 31 31 30 29 30 32 33 34 35 36 36 36 37
18 17 17 17 17 18 18 19 20 20 21 22 23 23 25 26 26 27 26 25 26 27 29 30 29 28 27 26 25 23 21 20 20 19 19 19 19 19 19 18 18 17 17 17 16 16 17 18 18 19 20 21 21 21 21 22 23 24 24 25 25 26 25 26 27 28 29 30 31 32 32 32 33 33 33 33 35 36 37 38 38 39 40 40 40
20 19 18 18 18 18 19 20 20 21 21 23 23 24 26 27 28 29 29 28 28 29 29 29 27 26 24 23 22 20 19 19 20 20 19 19 19 18 18 18 18 18 18 18 18 18 19 19 20 20 21 21 21 21 22 22 23 24 25 26 27 28 29 29 31 31 32 33 33 34 35 36 37 37 37 38 39 39 40 40 41 42 43 43 43
22 21 21 21 21 21 21 21 22 22 23 23 24 25 26 28 30 32 33 32 30 29 29 28 26 24 20 16 15 15 17 19 19 19 19 18 18 17 18 18 19 19 18 18 18 19 19 19 20 20 21 21 21 22 22 23 24 25 26 27 29 30 31 32 33 34 34 35 36 37 38 38 38 39 39 40 40 41 41 42 42 43 44 45 45
24 24 24 24 25 25 26 25 25 25 25 25 26 27 28 28 30 33 34 34 33 31 29 27 25 23 21 18 16 16 18 19 19 18 18 17 16 16 17 18 18 18 18 19 19 19 19 20 21 21 22 22 23 23 24 25 26 26 27 28 29 30 31 32 33 34 35 36 37 37 37 38 39 39 40 40 41 41 42 43 43 44 45 45 45
25 26 26 26 27 28 28 28 27 27 28 29 29 30 30 30 30 31 33 33 33 31 29 26 24 22 21 20 20 20 19 19 19 18 17 16 16 16 17 18 19 19 20 20 21 21 21 22 23 24 24 25 25 26 26 26 27 27 27 28 29 30 31 32 33 35 35 36 37 37 38 39 40 40 41 41 42 42 43 43 43 44 45 44 44
28 28 29 29 30 30 29 29 29 29 29 30 30 31 31 30 29 30 30 31 31 31 29 27 26 25 24 24 24 23 22 21 20 19 18 17 17 17 18 19 20 21 21 22 22 23 24 25 26 27 27 27 28 28 28 28 28 28 28 29 30 31 32 34 35 36 37 38 39 39 40 41 42 42 43 43 43 43 43 42 42 43 43 42 42
30 30 30 31 31 31 31 31 31 30 30 30 30 30 30 29 28 28 29 29 30 30 30 29 28 27 27 27 27 27 26 24 22 21 20 20 19 19 19 21 22 22 23 24 25 26 27 28 29 29 29 29 29 29 29 29 29 29 30 31 33 34 35 36 37 37 38 39 40 41 42 42 43 44 44 44 44 43 42 41 41 41 40 40 41
33 33 33 33 33 33 33 33 33 32 31 30 30 29 29 28 27 26 27 28 28 29 29 29 28 28 26 26 27 27 27 26 25 24 23 23 23 22 22 23 23 24 25 27 28 29 30 31 31 32 32 32 31 31 31 30 30 31 32 33 35 36 37 38 38 39 39 40 41 41 42 42 43 43 43 42 41 41 40 40 40 39 39 40 40
37 37 37 37 37 37 37 36 35 34 33 32 31 30 29 29 28 28 27 28 28 29 29 29 29 28 28 27 26 26 26 26 26 26 26 27 27 26 26 25 25 26 26 27 29 31 32 33 34 34 34 33 32 32 32 31 32 33 34 35 36 37 38 39 39 40 40 40 40 40 41 41 41 40 40 39 39 39 39 39 39 39 39 40 41
42 42 41 41 41 41 40 39 38 37 36 35 34 33 32 32 32 31 31 30 30 30 31 31 31 31 31 31 30 30 30 31 31 30 30 32 33 33 31 29 28 28 28 29 32 34 35 35 35 35 34 33 32 32 32 32 33 34 35 35 36 36 38 39 40 40 40 40 39 39 39 38 38 37 37 37 37 38 38 39 39 39 40 41 42
47 46 46 45 45 44 43 42 41 40 39 38 38 37 36 36 36 35 34 34 33 32 32 31 31 32 33 33 33 35 37 38 39 38 36 35 36 35 34 32 31 31 32 33 34 35 34 34 34 34 33 32 32 32 32 33 33 34 33 33 34 36 38 39 39 38 38 38 37 37 36 35 35 36 36 36 37 37 38 39 40 40 41 42 42
51 51 50 49 49 48 48 47 46 44 43 42 41 40 40 39 39 39 38 37 36 35 35 34 33 32 31 31 33 35 35 35 38 40 39 37 35 33 32 31 31 31 32 32 33 32 32 33 32 32 32 32 32 32 32 33 32 31 31 33 35 37 37 37 36 36 35 35 34 34 34 34 34 35 36 36 37 37 38 39 40 41 42 43 43
49 49 49 49 49 49 49 50 50 49 48 47 45 45 44 44 43 42 41 41 39 39 38 37 35 33 32 32 33 32 28 27 28 30 31 31 31 30 30 29 29 30 31 31 31 31 31 32 32 31 32 32 32 32 32 32 32 32 33 35 36 36 36 35 34 33 32 32 32 32 33 33 34 34 35 36 36 37 39 40 41 41 41 42 42
44 45 45 45 45 46 47 48 49 50 51 50 50 49 49 48 47 45 44 44 43 42 42 40 38 36 34 34 33 31 26 25 26 26 26 26 26 26 27 27 29 30 30 30 30 31 32 32 32 32 32 32 32 32 32 32 33 34 35 36 35 35 34 32 31 30 30 30 31 31 32 33 33 34 35 36 36 37 38 40 40 41 40 39 38
44 44 44 44 44 44 45 45 46 47 48 49 50 51 52 52 51 50 48 48 47 46 45 42 41 39 36 33 33 32 29 28 28 26 25 24 24 25 25 27 29 30 30 30 31 32 33 33 33 33 32 32 32 32 33 33 34 35 35 35 34 32 31 29 28 28 29 29 29 30 31 32 33 34 35 36 36 36 37 38 38 38 37 35 31
42 43 43 43 44 44 44 44 45 46 47 48 49 50 51 53 53 53 52 51 50 49 46 44 42 40 37 35 35 34 32 31 30 28 26 25 25 25 27 29 31 32 32 32 31 31 31 32 32 32 31 31 31 31 32 32 33 33 32 32 30 29 28 27 28 28 28 28 29 30 31 32 33 33 34 34 34 34 35 35 34 33 31 28 24
35 35 36 37 39 40 42 43 44 44 45 46 47 48 49 50 50 51 52 52 51 49 47 45 42 40 39 39 38 34 31 31 32 31 30 30 29 28 29 31 32 32 32 32 31 30 30 30 30 29 29 29 29 30 30 31 31 30 30 28 27 26 26 26 27 27 27 28 28 29 31 32 32 32 32 32 32 31 31 30 28 27 25 23 20
31 31 31 32 33 35 37 39 41 42 43 44 45 46 48 48 47 47 48 50 50 50 48 45 44 42 40 40 39 35 31 31 32 33 33 32 31 30 30 31 31 31 31 30 29 28 27 27 26 26 26 27 28 28 28 28 27 26 26 25 24 24 24 25 25 26 27 27 28 29 30 30 30 30 30 29 29 27 26 24 23 23 22 21 20
30 31 32 32 33 33 34 35 36 38 40 42 43 44 45 46 46 45 45 45 46 48 48 46 45 44 41 39 37 35 32 31 30 31 32 33 31 30 29 29 29 29 28 27 25 24 23 23 23 24 25 26 26 25 24 23 23 22 22 22 22 22 23 23 24 25 25 26 27 28 28 28 28 28 27 26 25 23 22 21 21 21 21 21 21
29 29 30 30 31 33 34 35 36 36 37 39 42 42 42 41 42 44 44 43 42 44 46 46 45 43 42 41 39 38 38 37 35 33 32 31 29 27 28 28 28 26 23 21 20 20 20 21 22 22 23 23 22 21 20 20 20 20 20 20 20 21 21 22 22 23 24 25 26 27 26 26 26 26 25 23 21 20 19 19 20 20 20 21 21
25 26 26 27 28 29 31 33 35 36 36 37 38 39 39 38 38 40 43 43 41 40 42 44 44 41 41 41 39 37 37 38 36 33 29 26 25 26 26 25 23 21 19 18 18 19 20 20 21 20 20 19 19 19 19 19 19 19 19 19 19 19 20 20 21 22 23 24 25 24 24 24 24 24 23 21 19 17 17 17 18 19 19 20 21
23 24 25 26 26 25 25 26 29 32 34 35 35 36 36 35 36 37 40 42 41 39 38 41 42 41 40 40 38 33 29 26 25 23 23 23 23 23 22 20 17 17 18 18 18 19 19 19 19 19 19 19 18 17 17 18 18 17 18 18 17 17 18 19 20 21 22 22 22 22 22 23 24 23 22 20 19 17 17 17 17 17 18 19 19
22 24 25 26 25 22 20 21 22 24 27 30 32 33 33 32 33 34 36 38 40 39 36 37 39 40 41 41 40 35 29 25 22 21 22 22 21 20 21 20 18 19 19 18 17 18 18 18 19 19 19 17 16 16 16 16 16 16 16 16 15 15 16 17 19 20 21 21 21 20 21 22 22 22 21 20 19 18 17 17 16 16 16 16 15
21 22 23 23 22 20 19 20 19 19 21 24 27 29 30 29 29 31 32 33 37 39 38 36 36 36 38 38 38 35 30 26 24 23 23 22 19 19 21 21 20 20 19 18 18 18 18 18 20 20 18 15 15 15 15 15 15 15 15 14 13 14 15 16 18 19 19 20 19 20 21 22 22 22 22 21 19 18 17 16 15 14 13 12 11
19 20 20 20 19 17 17 18 18 18 19 20 22 25 28 28 29 31 32 31 33 38 39 37 34 33 31 31 32 31 28 25 24 23 23 21 19 19 20 21 21 21 21 20 19 18 19 20 20 18 15 14 15 15 14 14 14 13 12 12 12 14 15 16 17 18 19 19 19 20 21 22 22 22 22 21 20 19 17 15 14 13 11 9 9
18 19 19 19 18 16 14 13 14 17 19 19 19 22 27 28 28 30 31 29 29 34 37 37 34 32 29 28 29 29 28 28 26 23 22 21 21 20 21 21 22 22 21 19 19 19 20 20 18 15 14 15 14 14 13 12 12 11 11 11 12 13 14 15 16 17 18 19 19 20 20 21 22 22 22 21 21 19 17 15 14 13 11 10 11
18 19 19 19 18 16 12 9 9 12 15 17 16 19 25 26 24 25 26 26 25 28 32 34 32 28 25 23 23 23 25 27 24 22 24 27 26 23 22 22 22 22 20 19 20 20 20 17 15 15 14 14 13 12 11 10 10 10 10 11 11 12 13 13 15 16 17 18 19 19 19 20 21 21 21 20 20 19 18 16 15 14 13 13 14
17 18 18 19 18 16 12 8 6 5 6 9 13 18 22 21 20 21 24 25 25 25 27 30 30 27 24 22 21 21 21 21 19 20 25 28 26 22 22 23 22 21 20 19 19 19 17 15 14 14 13 12 11 10 9 9 10 10 10 10 11 11 11 12 14 15 16 17 18 19 19 20 21 21 21 20 19 19 18 17 16 15 15 16 16
16 16 17 17 18 17 14 9 5 2 1 5 13 19 19 17 18 20 22 23 23 22 23 24 25 25 24 24 23 22 22 20 19 21 23 23 21 19 21 22 21 20 19 18 18 17 15 14 13 13 11 10 9 8 8 9 10 10 9 9 10 10 11 12 12 13 14 15 17 18 18 19 20 20 21 20 19 19 19 18 17 16 16 16 16
15 15 15 15 16 17 15 13 11 8 8 9 13 17 17 15 16 18 19 19 19 20 20 20 20 20 21 21 22 22 22 22 21 21 21 21 20 21 22 21 19 18 17 17 16 16 14 13 12 11 10 9 7 7 8 9 9 9 9 9 9 10 11 11 11 12 13 14 15 17 18 18 19 20 21 21 20 20 19 19 18 17 16 16 16
14 14 14 14 14 14 14 14 14 14 15 15 16 16 15 15 17 18 18 18 17 15 15 16 16 16 17 18 18 19 20 20 20 20 21 19 19 20 20 18 16 15 15 15 15 14 12 11 11 10 8 7 7 8 9 9 9 8 8 8 8 9 10 10 10 11 12 13 14 16 17 18 18 20 21 21 21 20 20 20 20 18 17 16 15
16 14 13 12 12 12 12 12 12 13 14 15 15 16 15 15 16 17 16 15 14 12 10 12 14 15 15 16 16 15 16 18 18 19 19 19 19 19 17 15 14 15 15 14 12 11 10 10 9 8 7 7 8 8 9 9 9 8 8 8 8 9 9 9 10 11 12 13 14 15 16 17 18 19 20 21 21 21 21 21 21 20 19 18 16
20 17 15 12 10 10 10 10 11 11 12 13 14 14 15 15 16 15 12 12 13 12 11 12 14 14 15 16 16 16 16 17 16 17 19 22 22 20 15 13 13 14 12 11 10 10 9 8 8 8 8 8 8 9 9 9 8 7 7 7 8 8 8 9 10 11 12 13 14 14 16 17 18 18 19 20 21 21 21 21 21 22 21 19 17
21 20 19 16 13 10 8 8 9 10 10 12 13 13 14 14 13 11 10 10 12 12 12 12 13 15 16 16 16 16 17 17 19 21 24 24 22 17 14 12 12 11 10 10 10 9 8 8 8 8 8 8 8 8 8 7 7 6 6 7 7 8 8 9 10 11 12 13 14 15 15 16 17 17 18 20 21 21 21 21 21 21 21 20 19
18 18 18 19 18 15 12 10 10 11 11 11 11 12 12 12 11 9 8 8 9 9 9 10 12 14 16 16 17 18 20 21 23 23 22 19 16 13 12 12 11 10 10 9 9 8 8 8 8 7 7 7 7 6 6 5 5 5 6 6 7 7 7 8 9 11 12 13 14 15 15 16 17 17 18 19 20 21 21 21 20 20 20 20 19
17 17 17 17 18 19 18 15 14 13 11 10 10 11 11 10 8 8 7 7 7 8 9 11 14 16 18 19 20 21 21 21 20 18 16 13 12 11 11 11 10 10 10 9 9 8 8 7 7 7 7 6 6 5 5 5 5 6 6 7 7 7 7 8 9 10 11 13 14 15 16 16 17 18 18 19 19 20 21 21 20 19 19 19 18
17 18 17 17 16 17 18 17 16 15 13 12 11 11 11 10 10 10 12 13 14 14 15 16 17 18 19 20 21 20 19 17 15 13 12 12 11 11 11 11 10 10 10 10 9 8 7 7 7 7 6 6 6 5 5 6 6 7 7 7 8 8 8 9 9 10 11 12 13 14 15 16 17 18 19 19 19 19 20 20 20 19 18 18 18
Wind_Direction
208 218 224 228 232 236 242 249 255 260 266 268 262 255 251 253 258 265 274 283 265 234 236 233 223 217 212 208 202 193 188 188 190 199 203 215 235 240 246 234 204 187 175 169 167 159 140 119 94 27 3 348 342 344 346 352 2 2 354 341 328 321 319 319 318 319 321 323 323 320 319 317 315 314 313 312 312 310 307 306 305 304 302 299 298
204 211 216 221 228 237 245 249 254 259 264 266 259 251 248 249 253 260 266 273 273 258 247 241 238 235 232 232 232 226 221 222 232 239 247 259 266 270 277 280 279 273 265 254 242 235 236 238 240 246 252 263 273 283 293 300 302 300 298 300 307 314 316 316 316 317 320 320 320 319 317 316 315 314 314 313 312 311 309 308 307 306 305 303 301
207 210 214 222 230 239 247 250 255 261 264 262 255 248 246 247 249 254 260 264 267 265 255 248 247 245 244 247 248 245 242 240 243 247 251 258 264 269 272 275 277 275 272 270 265 258 254 252 250 250 254 257 260 263 264 268 273 279 284 290 296 302 306 308 309 311 312 313 313 313 313 312 312 312 313 312 312 311 310 309 308 307 306 304 303
207 208 213 221 228 239 249 255 260 264 265 259 251 243 242 244 246 249 253 257 260 261 256 252 252 252 254 256 257 257 257 255 255 256 257 259 264 268 271 274 276 272 266 264 265 266 265 263 260 256 255 259 263 265 266 264 264 267 271 276 282 289 294 298 299 299 301 303 304 306 307 307 306 307 309 309 310 310 309 309 308 308 308 307 305
212 214 219 224 234 244 252 259 262 264 265 260 250 240 239 243 245 245 248 252 255 256 252 250 251 253 256 259 261 262 263 262 262 263 265 266 268 271 275 277 276 273 269 263 260 262 260 258 260 260 258 258 260 263 265 266 266 268 270 274 278 283 288 291 291 291 292 294 296 299 300 300 300 300 301 304 305 306 306 306 305 305 306 305 305
219 226 229 232 240 248 253 259 262 265 267 265 256 244 239 242 243 243 245 248 251 251 248 247 250 253 256 258 259 260 261 261 260 262 265 268 270 274 279 281 279 276 272 266 262 262 261 257 259 265 267 268 268 265 262 262 265 264 266 272 276 279 282 285 287 289 291 293 294 295 296 295 295 295 296 298 300 301 302 302 301 302 301 300 300
225 231 235 238 243 248 254 257 261 265 268 269 266 255 245 244 244 243 242 244 248 249 246 245 249 253 257 258 258 258 258 258 259 261 264 265 268 272 278 282 280 276 272 266 262 265 268 269 270 274 280 283 283 280 277 278 277 270 264 272 279 280 283 286 286 288 291 293 295 295 294 293 293 293 294 295 296 297 298 297 296 297 298 297 296
230 236 240 243 245 248 251 253 258 263 267 272 271 261 253 252 249 242 238 239 243 245 244 245 248 252 256 258 259 260 260 258 257 260 263 264 264 268 274 278 275 270 267 262 259 262 268 272 273 274 278 280 283 288 291 292 292 289 284 287 288 289 291 292 290 290 291 291 291 291 291 290 290 292 294 295 296 297 297 296 294 294 295 295 294
232 238 242 244 246 247 248 249 251 255 259 265 267 261 257 256 253 245 239 238 241 244 246 246 249 253 256 259 260 260 260 259 260 262 264 263 261 263 270 272 268 263 261 259 260 264 267 272 275 275 277 277 279 285 288 290 294 295 294 294 294 293 293 292 291 292 292 291 290 290 290 290 292 295 297 299 300 299 298 296 294 293 294 293 293
234 239 242 244 246 246 246 246 246 248 250 255 260 262 262 259 256 251 245 240 241 244 247 249 252 255 258 261 262 262 262 264 267 269 266 259 254 257 264 264 261 261 260 260 263 267 270 274 276 277 278 280 283 285 288 291 293 292 291 292 291 290 290 288 288 290 291 290 291 292 292 293 298 301 302 303 301 298 296 295 294 294 295 294 293
237 241 244 245 246 247 248 249 249 251 252 254 258 261 262 261 259 256 250 244 241 243 246 249 251 252 254 258 259 260 263 267 271 272 264 251 245 250 256 256 257 259 261 264 268 269 270 273 275 277 280 285 287 287 287 288 288 286 285 284 282 283 283 284 286 287 287 286 288 291 294 297 301 302 303 302 300 297 295 295 295 296 296 295 295
244 246 246 247 248 250 251 251 252 253 256 259 261 262 262 260 257 255 252 246 243 242 244 246 248 250 252 254 255 256 258 262 265 264 255 241 237 242 248 250 253 256 260 264 267 268 271 275 279 282 284 287 289 288 286 285 284 285 284 281 280 280 280 280 281 282 284 285 287 291 295 298 300 300 301 301 299 297 297 296 297 297 296 295 295
246 247 247 248 249 250 251 252 253 254 256 259 262 264 263 261 258 257 257 255 254 253 251 249 249 250 250 250 252 255 256 256 257 254 243 234 233 238 244 248 252 257 261 265 267 271 276 281 285 286 287 289 290 289 289 287 286 287 287 286 285 284 283 283 284 285 287 289 290 292 295 297 297 298 299 299 298 297 296 295 295 295 294 294 294
247 246 245 245 245 246 249 251 253 256 258 260 262 264 265 264 262 262 262 261 262 262 260 257 255 253 250 248 252 255 254 254 255 252 243 236 237 242 247 251 255 259 264 267 270 276 280 284 287 288 290 292 292 291 290 289 289 289 289 289 288 287 287 287 287 288 289 290 291 292 294 296 297 297 298 297 295 294 294 294 294 294 294 294 294
253 253 251 251 249 248 249 249 251 253 255 258 261 263 265 265 264 264 264 263 262 263 264 263 261 257 250 244 244 245 245 248 252 253 250 247 247 249 251 253 256 260 264 268 274 280 282 285 287 287 289 291 290 291 291 290 290 291 291 291 291 291 290 290 289 290 291 292 293 294 296 296 296 296 296 295 293 293 293 294 294 295 295 296 296
256 256 256 256 256 255 254 253 252 252 253 256 259 262 264 265 265 266 267 267 267 267 267 266 264 260 248 234 230 234 240 245 249 249 249 249 249 250 252 255 259 263 268 273 278 281 282 283 284 284 285 287 288 290 291 290 290 290 290 291 290 290 290 290 290 291 292 294 295 295 295 295 295 296 296 295 295 295 296 296 296 296 296 296 296
260 262 262 263 263 262 261 260 258 259 259 259 260 260 261 262 264 265 266 267 267 267 268 267 266 265 258 243 234 237 243 245 244 244 245 245 248 252 255 259 263 266 270 273 276 278 280 281 283 284 286 288 291 292 293 292 292 291 291 291 290 290 290 291 292 292 293 293 293 293 294 294 295 295 294 294 295 296 296 297 296 296 296 296 296
263 263 263 263 264 265 266 265 263 261 260 260 261 262 262 261 261 263 264 265 266 267 268 268 267 266 264 258 250 245 244 244 243 243 245 247 252 257 260 263 265 267 269 272 275 278 280 282 285 287 290 293 295 295 295 294 294 293 294 293 292 292 293 293 293 293 292 292 291 292 293 293 293 293 293 294 295 295 295 296 295 295 294 295 295
266 266 264 263 263 264 266 265 263 262 260 260 260 260 260 259 258 259 261 261 262 264 265 264 262 259 258 256 252 246 242 242 242 243 246 250 253 257 261 264 266 269 272 274 278 282 284 286 288 291 294 296 297 296 295 294 294 294 295 295 295 295 294 293 293 292 292 292 292 292 292 292 292 293 293 294 294 294 295 295 295 294 294 295 295
269 269 267 266 264 264 264 263 263 262 261 260 258 256 254 253 253 255 257 258 259 261 261 259 257 254 253 252 251 248 243 240 240 242 245 249 252 255 261 265 268 270 274 276 279 282 285 287 289 292 294 296 297 296 295 294 294 294 295 294 294 294 293 293 293 293 293 293 293 293 293 293 294 294 295 296 296 296 297 296 295 295 295 295 295
268 267 265 263 262 261 260 260 260 260 259 258 257 255 252 251 250 251 253 255 257 258 259 259 258 256 254 252 250 247 244 241 240 241 244 247 251 257 263 267 268 270 274 277 279 281 284 286 288 290 292 294 294 294 292 290 290 291 292 292 293 294 295 295 295 295 294 294 295 295 296 298 298 299 300 300 300 300 300 299 298 297 297 297 296
265 263 262 260 259 258 258 258 258 257 256 255 254 252 250 249 249 250 252 254 256 257 258 259 260 258 256 252 249 246 244 243 243 245 247 250 253 258 262 264 266 269 273 276 277 279 282 285 287 289 290 292 292 291 289 288 288 289 291 293 295 296 297 297 297 296 296 296 297 298 299 299 300 301 301 301 301 301 300 299 299 298 298 298 297
265 263 261 260 259 259 259 259 257 255 253 252 251 250 249 249 248 249 251 254 256 257 258 259 259 258 257 255 253 251 249 248 249 250 252 255 256 257 258 259 262 265 268 271 275 279 283 285 286 287 288 290 290 290 289 289 290 291 292 294 296 297 298 298 298 298 298 298 297 298 298 299 299 300 300 300 300 300 299 299 299 299 299 298 298
267 265 263 262 261 261 260 259 257 255 253 251 251 251 251 251 250 249 250 252 254 256 257 258 259 258 257 255 254 254 253 252 252 253 255 258 261 260 257 257 261 265 268 271 275 280 282 283 284 285 287 288 288 288 289 290 291 292 293 294 296 298 299 299 298 298 297 297 297 297 297 298 298 297 297 297 298 298 299 299 298 298 298 297 297
268 266 265 263 262 261 261 259 257 256 254 251 249 249 250 250 250 250 250 251 252 253 255 256 256 256 256 255 254 255 256 256 256 255 256 259 262 261 259 260 264 269 272 274 276 279 280 281 283 285 286 286 286 286 288 290 291 292 293 294 297 299 300 299 298 297 297 296 297 297 296 296 296 296 296 297 298 298 298 298 298 297 296 296 295
269 268 266 264 262 261 259 258 257 256 254 252 250 249 248 248 248 250 251 251 251 251 253 254 253 253 254 256 257 259 261 261 258 256 256 258 259 258 259 264 268 270 272 274 276 279 281 282 284 285 285 285 284 285 288 290 290 290 292 294 298 300 300 299 298 297 296 296 295 295 294 295 295 296 297 298 298 298 298 297 297 297 297 296 296
272 271 270 268 266 264 261 259 258 256 254 253 251 250 250 249 247 247 249 250 250 251 252 254 255 254 254 256 258 260 263 263 258 255 255 257 258 259 262 266 268 269 271 274 277 280 282 283 284 284 284 285 285 287 288 289 288 289 292 295 297 298 298 298 297 296 295 294 293 293 294 295 295 296 297 298 299 299 299 298 297 297 297 297 297
275 275 273 271 270 267 265 262 260 257 255 253 251 250 250 250 248 247 247 248 249 250 252 254 257 257 257 258 259 260 259 258 257 257 257 259 262 265 268 270 271 271 273 276 280 282 283 284 284 284 284 285 287 287 288 287 288 290 292 294 296 297 297 296 294 293 292 291 292 293 294 296 297 299 300 300 301 301 300 299 298 298 298 299 300
277 276 274 273 271 268 266 264 261 258 256 254 251 249 248 247 247 247 247 246 247 248 249 252 254 254 254 256 258 258 258 257 257 257 256 258 262 267 271 274 276 277 278 280 282 283 283 283 284 284 285 286 287 288 288 287 288 289 291 292 294 295 295 293 291 291 291 292 294 296 298 300 302 303 303 303 303 303 301 300 300 300 301 302 303
277 275 274 273 271 269 267 265 262 259 257 254 252 250 248 246 244 244 244 246 247 248 248 249 250 250 250 252 252 251 252 256 257 255 253 255 260 266 272 276 277 278 278 279 281 284 284 283 283 284 285 287 287 287 287 287 287 287 288 290 291 291 291 291 291 293 294 296 299 301 302 303 304 305 305 306 305 304 302 301 300 300 301 302 302
281 279 276 274 271 268 266 264 262 260 257 255 253 251 250 249 246 243 241 242 243 245 245 244 245 246 247 248 247 245 246 251 256 256 254 255 258 263 269 273 275 276 276 278 283 286 285 282 282 284 286 287 287 286 286 285 285 286 287 287 288 288 289 291 293 295 298 301 303 304 305 307 307 308 309 308 307 305 302 301 300 300 301 300 296
287 285 283 279 275 271 267 263 260 258 256 254 252 250 250 250 249 246 243 241 240 241 242 243 245 246 245 242 242 241 243 247 251 253 252 252 254 259 266 271 273 274 275 278 282 283 281 280 281 283 284 284 284 284 283 283 283 284 285 285 286 288 290 293 296 298 301 303 305 307 308 309 310 311 312 311 308 305 302 300 299 299 297 294 291
288 287 285 283 280 277 273 269 263 258 254 252 250 249 248 248 247 246 245 243 239 238 239 241 243 243 241 240 240 240 239 240 242 245 247 249 252 258 266 271 273 275 276 277 277 276 276 278 279 280 280 281 281 280 279 279 280 281 282 284 286 290 293 295 298 300 302 305 307 309 310 312 313 314 315 314 311 307 303 300 298 296 294 292 292
291 291 289 287 283 278 274 270 265 261 256 251 247 246 244 244 243 242 243 243 240 237 237 238 239 237 235 236 236 232 228 228 230 233 238 245 251 259 267 272 274 275 274 273 271 272 273 274 274 276 278 278 276 274 273 275 278 280 282 285 288 292 294 297 300 302 305 307 310 311 313 315 318 319 319 317 313 308 304 301 298 295 294 294 295
298 297 296 293 288 281 274 269 264 259 255 250 246 243 241 240 239 237 238 240 240 236 234 234 236 236 235 236 234 226 221 224 228 230 236 244 252 260 266 270 271 269 265 264 266 268 270 270 271 275 277 274 270 270 272 274 277 279 283 287 290 293 296 299 301 304 306 309 311 313 317 321 323 322 322 321 318 313 307 303 299 297 297 297 297
308 307 306 304 298 288 278 273 268 259 251 247 244 239 236 235 234 233 233 236 237 237 234 233 234 235 237 240 240 233 225 227 230 233 240 249 254 256 257 258 260 258 255 257 262 264 266 268 271 276 276 271 266 267 271 274 277 281 284 287 290 294 298 301 303 306 310 313 314 317 322 325 326 325 326 326 323 319 313 308 305 303 300 299 299
319 318 316 312 305 293 282 280 277 264 250 244 241 235 230 228 228 226 227 230 233 235 235 235 235 235 235 238 240 239 238 239 241 242 245 249 252 251 249 250 253 253 251 253 260 263 265 269 274 277 275 267 262 266 273 279 282 283 284 287 291 296 299 301 305 310 314 315 317 321 326 328 329 331 333 332 330 326 322 316 311 306 302 300 302
329 326 323 318 310 296 282 277 274 263 248 242 239 233 225 221 220 219 221 225 229 230 231 234 236 237 236 235 234 235 236 236 236 236 238 242 248 253 252 249 249 249 251 257 263 265 268 273 275 275 269 261 262 271 278 282 281 281 283 289 294 297 300 303 309 314 317 318 322 327 331 333 336 337 338 338 336 333 329 322 315 309 304 303 305
337 333 329 326 321 308 290 275 264 254 246 243 239 228 216 212 213 214 216 221 225 226 228 232 235 239 239 233 229 230 231 229 229 233 238 243 248 251 250 250 249 248 252 259 263 265 269 273 272 269 262 260 267 274 276 276 277 279 284 291 294 296 301 307 313 318 321 324 328 332 335 339 341 341 341 342 341 338 334 328 321 315 309 305 309
349 347 344 339 334 327 314 290 266 252 247 248 241 222 208 206 210 212 213 216 221 224 226 229 233 238 237 229 224 225 224 221 223 233 242 247 250 248 247 249 250 248 249 255 259 261 264 266 265 263 261 264 268 270 269 272 276 279 284 289 293 297 303 310 315 320 324 327 331 335 339 343 345 345 344 343 342 339 335 330 324 318 313 311 315
2 5 3 357 349 342 335 320 289 260 249 247 235 210 198 200 206 209 210 212 215 220 224 227 231 237 237 229 224 226 225 222 224 233 237 236 236 240 244 245 244 245 248 251 254 256 258 259 259 261 263 263 262 262 266 272 277 279 283 288 292 297 306 313 318 322 326 330 333 337 342 346 348 348 346 344 341 339 336 331 325 319 314 313 315
13 17 18 14 9 3 356 344 326 290 253 231 208 192 189 194 201 205 208 209 211 217 224 227 229 235 239 235 232 238 243 241 242 248 242 230 221 225 236 240 240 243 246 247 248 250 253 256 258 260 259 255 254 259 268 273 275 278 283 288 292 301 311 318 320 324 329 333 336 340 345 348 350 350 348 345 344 343 340 336 328 320 314 311 311
21 24 25 25 24 23 22 21 16 15 135 176 178 177 177 184 194 200 203 206 209 215 222 225 226 232 236 237 238 243 247 246 246 249 244 230 220 227 238 240 240 240 240 240 244 248 252 255 256 253 249 248 252 262 270 271 272 277 282 288 297 309 317 320 322 327 333 337 339 342 345 348 351 351 351 350 349 348 346 342 336 328 321 315 312
26 28 29 30 32 33 38 46 59 80 102 127 151 161 164 170 180 187 191 197 206 215 220 222 225 230 233 235 239 242 241 241 242 239 231 224 227 237 239 235 231 231 232 236 243 247 248 247 244 241 242 247 255 263 267 267 271 278 284 292 305 314 317 320 325 332 337 340 344 345 347 349 352 354 355 354 353 352 351 349 346 340 331 324 319
29 30 33 36 38 42 48 57 70 88 104 116 129 142 151 160 169 177 183 192 204 212 214 212 216 222 225 227 233 235 233 233 232 227 221 221 228 231 226 220 220 227 233 238 242 240 235 233 233 235 241 249 254 259 263 267 272 279 287 298 308 312 315 322 330 336 341 344 348 350 349 350 354 357 358 357 356 356 357 356 353 348 341 334 328
34 34 35 37 43 48 56 66 78 94 108 119 129 140 148 157 166 174 181 190 199 204 201 198 203 210 214 216 218 220 219 218 218 217 217 216 212 210 210 214 224 232 235 234 230 225 223 225 229 235 241 247 252 257 262 266 271 278 288 299 306 309 316 325 334 340 345 348 351 353 353 353 356 358 358 358 359 0 359 357 355 352 348 343 338
36 38 37 38 42 51 63 74 86 99 113 123 132 141 148 154 162 169 175 184 192 196 196 195 200 205 210 212 214 214 214 215 215 214 211 206 201 202 210 222 228 229 225 219 217 219 222 226 232 236 241 246 251 256 260 264 268 274 282 292 300 307 318 330 338 344 347 350 353 356 358 358 359 359 357 359 2 2 1 359 356 354 351 348 344
35 38 39 39 41 48 63 81 91 102 115 125 135 143 149 154 161 168 172 177 183 190 196 202 208 210 212 214 216 215 213 209 206 205 204 201 199 200 208 216 220 218 213 211 216 222 225 227 232 235 238 244 249 253 258 263 267 272 281 289 297 306 320 333 340 343 346 350 355 357 360 1 1 359 359 2 4 3 3 2 358 354 353 351 349
39 40 42 45 48 51 59 78 98 108 116 124 135 143 149 154 161 167 169 171 179 189 196 199 200 198 195 194 195 195 195 195 195 196 197 197 195 195 202 210 213 209 207 213 221 225 224 225 227 228 231 238 243 248 256 264 270 279 289 295 300 308 322 333 337 340 345 350 353 356 359 2 2 2 4 6 5 4 4 4 0 356 354 353 352
47 46 47 52 58 61 65 73 88 101 111 121 131 139 145 150 155 159 161 162 166 169 167 163 163 165 167 169 174 179 183 187 189 190 189 189 190 194 202 206 205 203 209 218 221 218 214 215 216 218 222 228 232 239 252 263 272 282 290 296 304 313 321 327 332 337 343 347 350 353 358 1 2 4 7 8 7 5 4 5 4 0 356 354 354
52 52 52 55 62 68 71 74 79 85 93 102 113 123 132 140 147 154 158 158 155 152 151 152 156 161 167 172 178 182 185 185 185 183 182 184 189 195 200 202 201 203 210 214 212 208 207 208 210 211 215 219 226 238 253 263 273 282 288 294 303 312 317 321 328 333 339 343 346 350 354 358 1 5 7 8 8 6 4 5 6 5 1 358 357
Height
3126 3127 3129 3130 3131 3132 3133 3133 3134 3134 3134 3135 3135 3136 3137 3139 3140 3140 3141 3141 3142 3142 3143 3144 3144 3144 3144 3145 3145 3145 3145 3145 3145 3146 3146 3146 3146 3147 3147 3147 3147 3147 3147 3147 3147 3147 3147 3147 3148 3148 3148 3148 3149 3149 3150 3150 3150 3150 3150 3150 3151 3151 3151 3150 3150 3150 3150 3149 3149 3149 3148 3148 3147 3147 3147 3146 3146 3145 3145 3145 3144 3144 3143 3143 3143
3125 3126 3128 3130 3130 3131 3132 3132 3133 3133 3133 3133 3133 3134 3135 3137 3138 3139 3139 3140 3140 3141 3142 3142 3143 3143 3144 3144 3144 3144 3144 3144 3145 3145 3145 3145 3146 3146 3146 3147 3147 3147 3147 3147 3147 3147 3147 3147 3147 3147 3147 3148 3148 3148 3149 3149 3149 3149 3149 3149 3149 3149 3149 3149 3149 3149 3148 3148 3148 3148 3147 3147 3146 3146 3145 3145 3144 3144 3143 3143 3142 3142 3141 3140 3140
3125 3126 3128 3129 3130 3130 3131 3131 3131 3132 3132 3132 3132 3133 3134 3135 3137 3137 3138 3138 3139 3139 3140 3141 3142 3142 3143 3143 3143 3144 3144 3144 3144 3144 3144 3144 3145 3145 3145 3146 3146 3146 3146 3146 3146 3146 3146 3146 3146 3146 3147 3147 3147 3147 3147 3148 3148 3148 3148 3148 3148 3148 3148 3148 3147 3147 3147 3147 3147 3146 3146 3146 3145 3145 3144 3144 3143 3142 3142 3141 3140 3140 3139 3138 3138
3125 3126 3127 3128 3129 3129 3129 3130 3130 3130 3130 3131 3131 3131 3132 3133 3134 3135 3136 3136 3137 3137 3138 3139 3140 3141 3141 3142 3142 3143 3143 3143 3143 3143 3143 3143 3144 3144 3144 3144 3144 3145 3145 3145 3145 3145 3145 3145 3145 3145 3145 3145 3145 3146 3146 3146 3147 3147 3147 3147 3147 3147 3147 3147 3146 3146 3146 3145 3145 3145 3145 3144 3144 3143 3143 3142 3141 3141 3140 3139 3139 3138 3137 3136 3135
3124 3125 3126 3127 3128 3128 3128 3128 3128 3129 3129 3129 3129 3130 3130 3131 3132 3133 3134 3134 3135 3136 3136 3137 3138 3139 3139 3140 3141 3141 3141 3141 3141 3141 3141 3142 3142 3142 3142 3143 3143 3143 3143 3143 3144 3144 3144 3144 3144 3144 3144 3144 3144 3144 3144 3144 3145 3145 3145 3145 3146 3146 3146 3145 3145 3144 3144 3144 3144 3143 3143 3143 3142 3142 3141 3140 3140 3139 3138 3137 3137 3136 3135 3134 3133
3123 3124 3125 3126 3126 3127 3127 3127 3127 3127 3127 3127 3127 3128 3129 3129 3130 3130 3131 3132 3133 3133 3134 3135 3136 3136 3137 3138 3138 3139 3139 3139 3139 3139 3139 3139 3140 3140 3140 3140 3140 3141 3141 3141 3141 3142 3142 3142 3142 3142 3142 3142 3142 3142 3142 3142 3142 3142 3143 3143 3144 3144 3144 3143 3143 3143 3142 3142 3142 3141 3141 3141 3140 3140 3140 3139 3138 3137 3136 3135 3134 3133 3132 3131 3130
3122 3123 3124 3124 3125 3125 3125 3125 3125 3125 3125 3125 3125 3126 3127 3128 3128 3129 3129 3130 3130 3131 3132 3133 3134 3134 3134 3135 3135 3135 3136 3136 3136 3136 3136 3137 3137 3137 3138 3138 3138 3138 3138 3138 3139 3139 3139 3140 3140 3140 3140 3140 3140 3140 3140 3140 3140 3140 3140 3141 3141 3141 3141 3141 3141 3141 3141 3140 3140 3139 3139 3138 3138 3137 3137 3137 3136 3134 3134 3133 3131 3130 3129 3128 3127
3121 3121 3122 3123 3123 3123 3123 3123 3123 3123 3123 3124 3124 3124 3125 3126 3126 3127 3127 3128 3128 3129 3130 3130 3131 3131 3132 3132 3132 3132 3133 3133 3133 3133 3134 3134 3135 3135 3136 3136 3136 3136 3136 3136 3137 3137 3137 3137 3138 3138 3138 3138 3138 3138 3138 3138 3137 3137 3138 3138 3138 3139 3139 3139 3139 3139 3139 3138 3138 3137 3136 3135 3135 3135 3134 3134 3133 3131 3130 3130 3128 3127 3126 3125 3124
3119 3120 3120 3121 3121 3121 3121 3122 3122 3122 3122 3122 3122 3122 3122 3123 3124 3124 3125 3125 3126 3127 3127 3127 3128 3129 3129 3129 3130 3130 3130 3130 3130 3131 3131 3131 3132 3133 3134 3134 3134 3134 3134 3134 3134 3135 3135 3135 3136 3136 3136 3136 3136 3136 3136 3136 3136 3136 3136 3136 3136 3136 3136 3136 3136 3136 3136 3135 3135 3134 3133 3132 3132 3131 3130 3130 3129 3128 3126 3125 3125 3124 3123 3122 3120
3117 3118 3118 3119 3119 3119 3119 3120 3120 3120 3120 3120 3120 3120 3120 3120 3121 3121 3122 3122 3123 3124 3124 3124 3125 3126 3126 3126 3127 3127 3127 3127 3127 3127 3127 3128 3129 3130 3131 3131 3132 3132 3132 3132 3132 3132 3133 3133 3134 3134 3134 3134 3135 3134 3134 3134 3134 3134 3134 3135 3134 3134 3134 3134 3133 3133 3133 3132 3131 3131 3130 3129 3128 3127 3126 3126 3125 3124 3123 3121 3121 3120 3119 3118 3117
3115 3115 3116 3116 3117 3117 3117 3117 3118 3118 3118 3118 3118 3118 3118 3118 3118 3118 3119 3119 3120 3120 3120 3121 3121 3121 3122 3123 3123 3124 3123 3123 3124 3124 3123 3124 3126 3128 3128 3129 3130 3130 3130 3130 3130 3130 3131 3131 3131 3132 3132 3132 3132 3132 3132 3132 3132 3132 3132 3132 3132 3132 3132 3132 3131 3130 3130 3129 3128 3127 3127 3125 3124 3123 3123 3122 3120 3119 3118 3117 3116 3116 3115 3114 3114
3112 3112 3113 3114 3114 3115 3115 3115 3115 3115 3115 3116 3116 3116 3116 3116 3116 3115 3115 3115 3115 3116 3116 3116 3117 3118 3119 3120 3120 3121 3120 3120 3121 3121 3121 3122 3124 3125 3126 3127 3128 3128 3128 3128 3128 3128 3128 3128 3129 3129 3129 3129 3129 3129 3129 3129 3129 3129 3129 3129 3129 3129 3129 3129 3128 3127 3126 3126 3125 3123 3123 3122 3120 3119 3119 3118 3116 3115 3114 3113 3112 3112 3111 3110 3110
3108 3109 3110 3111 3111 3112 3112 3112 3113 3113 3113 3113 3114 3114 3114 3113 3113 3113 3112 3112 3113 3113 3113 3113 3114 3116 3116 3117 3117 3118 3118 3118 3118 3119 3119 3120 3121 3123 3124 3124 3125 3126 3126 3126 3127 3127 3126 3126 3126 3126 3126 3127 3127 3126 3126 3126 3126 3126 3126 3126 3125 3125 3125 3124 3124 3123 3122 3122 3121 3119 3119 3118 3117 3115 3115 3114 3113 3111 3110 3109 3108 3107 3106 3106 3105
3105 3106 3107 3107 3108 3109 3109 3110 3110 3110 3111 3111 3111 3111 3111 3111 3110 3110 3110 3110 3111 3111 3111 3111 3112 3112 3113 3113 3114 3114 3114 3115 3115 3116 3117 3118 3119 3120 3121 3122 3123 3123 3124 3124 3124 3125 3125 3125 3125 3124 3123 3124 3124 3124 3124 3123 3123 3123 3122 3122 3122 3121 3121 3120 3120 3119 3119 3118 3117 3116 3115 3115 3113 3112 3111 3111 3109 3108 3107 3105 3104 3102 3101 3101 3100
3102 3103 3104 3104 3105 3106 3106 3106 3107 3107 3108 3108 3108 3109 3108 3108 3108 3107 3107 3107 3108 3108 3107 3108 3108 3108 3109 3109 3110 3110 3111 3112 3113 3114 3115 3116 3117 3118 3119 3119 3120 3120 3121 3121 3121 3122 3122 3122 3122 3122 3121 3121 3121 3121 3121 3121 3120 3120 3119 3119 3118 3117 3117 3117 3116 3115 3115 3114 3113 3112 3111 3110 3109 3108 3107 3106 3105 3104 3102 3101 3099 3097 3096 3095 3094
3099 3100 3101 3101 3102 3103 3103 3103 3104 3104 3105 3105 3105 3105 3105 3105 3105 3105 3104 3104 3104 3104 3104 3105 3105 3105 3105 3106 3106 3107 3108 3109 3111 3112 3113 3114 3115 3116 3116 3116 3117 3117 3117 3118 3118 3118 3119 3119 3119 3119 3119 3119 3118 3118 3118 3118 3117 3117 3116 3115 3115 3114 3113 3113 3112 3111 3110 3110 3109 3107 3106 3105 3104 3103 3102 3101 3099 3098 3097 3095 3094 3092 3090 3089 3088
3097 3097 3097 3098 3099 3099 3100 3100 3101 3101 3101 3102 3102 3102 3102 3102 3102 3101 3101 3101 3101 3101 3101 3102 3102 3102 3103 3104 3104 3105 3106 3107 3108 3109 3110 3111 3112 3112 3113 3113 3113 3113 3114 3114 3115 3115 3116 3116 3116 3116 3116 3116 3116 3115 3115 3114 3114 3113 3113 3112 3111 3110 3110 3109 3108 3107 3106 3105 3104 3103 3102 3101 3100 3098 3097 3096 3094 3093 3091 3090 3088 3086 3084 3083 3082
3093 3094 3094 3095 3095 3095 3096 3097 3097 3098 3098 3098 3098 3098 3098 3098 3098 3098 3097 3097 3097 3098 3098 3098 3099 3100 3101 3102 3103 3103 3104 3104 3106 3106 3107 3108 3109 3109 3109 3109 3110 3110 3111 3111 3112 3112 3113 3113 3113 3113 3113 3112 3112 3112 3111 3111 3110 3109 3109 3108 3107 3107 3106 3105 3104 3103 3102 3101 3100 3099 3098 3096 3095 3094 3092 3091 3090 3088 3087 3085 3083 3081 3079 3077 3076
3090 3090 3091 3091 3092 3092 3092 3092 3093 3094 3094 3094 3095 3095 3094 3094 3094 3094 3094 3094 3094 3094 3094 3095 3096 3097 3098 3099 3100 3101 3101 3102 3103 3103 3104 3104 3105 3105 3106 3106 3106 3107 3107 3107 3108 3108 3109 3109 3109 3109 3109 3109 3109 3108 3108 3107 3107 3106 3105 3105 3104 3103 3102 3101 3100 3099 3098 3097 3096 3095 3093 3092 3091 3089 3087 3086 3085 3084 3082 3080 3078 3075 3073 3072 3071
3085 3086 3086 3087 3087 3087 3088 3088 3089 3089 3089 3090 3090 3090 3090 3090 3090 3090 3090 3090 3091 3091 3091 3092 3093 3094 3095 3096 3097 3098 3099 3099 3100 3100 3100 3101 3102 3102 3103 3103 3103 3104 3103 3103 3104 3104 3105 3105 3105 3105 3105 3105 3105 3105 3104 3104 3103 3102 3102 3101 3100 3099 3098 3097 3096 3094 3093 3092 3091 3089 3088 3086 3085 3083 3082 3080 3079 3077 3076 3074 3072 3070 3068 3066 3065
3081 3081 3082 3082 3082 3083 3083 3084 3084 3085 3085 3085 3085 3086 3086 3086 3086 3086 3087 3087 3087 3088 3088 3089 3089 3090 3091 3092 3093 3094 3096 3096 3096 3096 3097 3097 3098 3098 3099 3100 3100 3100 3100 3100 3100 3101 3101 3101 3101 3102 3102 3102 3102 3101 3101 3100 3099 3099 3098 3097 3096 3095 3093 3092 3091 3090 3088 3086 3085 3084 3082 3080 3078 3077 3075 3073 3071 3070 3069 3067 3065 3063 3062 3060 3058
3076 3076 3077 3077 3077 3078 3078 3079 3079 3080 3080 3081 3081 3081 3082 3082 3082 3083 3083 3083 3084 3084 3085 3085 3086 3087 3088 3089 3089 3090 3091 3092 3092 3093 3093 3093 3094 3095 3095 3096 3096 3097 3097 3097 3096 3096 3097 3097 3098 3098 3097 3097 3098 3097 3097 3096 3095 3094 3093 3092 3091 3090 3088 3087 3086 3084 3083 3081 3080 3078 3076 3075 3073 3071 3069 3067 3066 3064 3062 3060 3059 3057 3056 3054 3052
3070 3071 3071 3072 3072 3072 3073 3073 3074 3075 3076 3076 3076 3077 3077 3078 3078 3078 3079 3079 3079 3080 3081 3081 3082 3082 3083 3084 3085 3086 3087 3088 3088 3089 3089 3090 3090 3091 3092 3092 3093 3093 3094 3093 3092 3092 3093 3093 3093 3094 3094 3094 3093 3093 3092 3091 3091 3090 3089 3087 3086 3085 3084 3082 3081 3079 3078 3076 3075 3073 3072 3070 3068 3066 3064 3062 3061 3059 3057 3055 3054 3052 3051 3049 3047
3064 3064 3065 3066 3066 3066 3067 3068 3068 3069 3070 3071 3071 3072 3072 3073 3073 3074 3074 3075 3075 3076 3076 3077 3077 3078 3078 3080 3081 3082 3082 3083 3084 3084 3085 3086 3086 3087 3088 3088 3089 3089 3090 3090 3089 3089 3089 3089 3089 3090 3090 3090 3089 3089 3088 3087 3086 3085 3084 3083 3082 3081 3079 3078 3076 3075 3073 3072 3070 3069 3067 3065 3063 3062 3060 3058 3056 3055 3053 3051 3049 3048 3046 3044 3042
3057 3057 3058 3059 3059 3060 3060 3061 3062 3063 3064 3065 3066 3066 3067 3068 3068 3069 3069 3070 3070 3071 3071 3072 3073 3073 3073 3075 3076 3076 3077 3078 3078 3079 3080 3082 3083 3083 3084 3085 3085 3086 3086 3086 3085 3085 3085 3085 3086 3086 3086 3085 3085 3085 3084 3083 3082 3081 3080 3079 3078 3077 3075 3074 3072 3070 3069 3067 3065 3064 3062 3061 3059 3057 3055 3054 3052 3051 3049 3046 3044 3043 3041 3039 3037
3049 3050 3051 3051 3052 3053 3053 3054 3055 3056 3057 3058 3059 3060 3061 3062 3063 3063 3064 3065 3065 3066 3066 3067 3068 3068 3068 3070 3071 3071 3072 3073 3073 3074 3076 3077 3078 3079 3080 3081 3082 3082 3082 3082 3082 3082 3082 3082 3082 3081 3081 3081 3081 3080 3080 3079 3078 3077 3076 3075 3074 3073 3071 3070 3068 3066 3065 3063 3061 3060 3058 3056 3055 3053 3051 3050 3048 3046 3044 3042 3040 3038 3035 3033 3031
3042 3042 3043 3043 3044 3045 3045 3046 3047 3048 3049 3051 3052 3053 3054 3055 3056 3057 3058 3059 3060 3061 3061 3062 3063 3064 3064 3065 3067 3067 3068 3069 3069 3070 3072 3073 3074 3075 3076 3077 3078 3078 3078 3078 3078 3078 3078 3078 3078 3078 3077 3077 3076 3076 3076 3075 3074 3073 3072 3071 3070 3069 3067 3066 3064 3062 3061 3059 3057 3056 3054 3053 3051 3050 3048 3046 3044 3042 3039 3036 3034 3032 3030 3028 3026
3035 3035 3035 3035 3036 3036 3037 3037 3038 3039 3041 3042 3044 3045 3046 3048 3049 3051 3052 3053 3054 3056 3057 3058 3059 3060 3061 3062 3062 3063 3064 3065 3066 3067 3068 3070 3071 3072 3073 3073 3074 3074 3074 3074 3074 3074 3074 3074 3074 3073 3073 3073 3072 3072 3071 3071 3070 3069 3068 3067 3066 3064 3063 3062 3060 3059 3057 3055 3054 3053 3051 3049 3047 3045 3043 3041 3039 3037 3034 3031 3029 3026 3025 3023 3021
3028 3027 3027 3027 3027 3028 3028 3029 3029 3030 3031 3033 3034 3036 3037 3039 3041 3043 3045 3046 3047 3048 3051 3053 3055 3056 3057 3058 3058 3059 3060 3061 3062 3064 3065 3066 3067 3068 3068 3069 3069 3069 3070 3070 3070 3070 3070 3070 3069 3069 3069 3069 3068 3068 3067 3067 3066 3065 3064 3063 3061 3060 3059 3058 3057 3055 3054 3052 3051 3049 3047 3045 3043 3041 3039 3036 3034 3032 3029 3026 3023 3021 3019 3018 3016
3020 3020 3019 3019 3019 3019 3019 3020 3021 3021 3022 3023 3025 3026 3027 3029 3032 3035 3037 3039 3040 3043 3045 3048 3049 3051 3053 3054 3054 3054 3056 3057 3058 3060 3061 3062 3063 3064 3064 3065 3065 3066 3066 3066 3067 3067 3066 3066 3065 3065 3065 3065 3064 3064 3063 3062 3061 3061 3060 3059 3057 3056 3055 3054 3053 3052 3050 3049 3047 3045 3043 3041 3039 3037 3035 3032 3029 3027 3024 3021 3019 3017 3015 3014 3012
3013 3013 3012 3011 3011 3011 3011 3011 3012 3013 3014 3015 3016 3018 3019 3021 3024 3027 3029 3031 3034 3037 3039 3041 3044 3046 3048 3049 3049 3050 3052 3053 3054 3056 3057 3058 3059 3060 3061 3061 3062 3062 3062 3063 3063 3063 3062 3062 3061 3061 3061 3061 3060 3059 3059 3058 3057 3056 3056 3055 3054 3053 3052 3051 3050 3048 3047 3045 3043 3041 3039 3037 3035 3032 3030 3028 3025 3022 3020 3017 3015 3013 3012 3011 3009
3007 3006 3005 3004 3004 3003 3003 3003 3003 3004 3005 3007 3008 3010 3012 3014 3016 3019 3022 3025 3028 3030 3033 3036 3038 3041 3042 3043 3044 3046 3047 3049 3050 3051 3053 3054 3055 3056 3057 3058 3058 3059 3059 3059 3059 3058 3058 3058 3058 3058 3057 3057 3056 3056 3055 3054 3054 3053 3052 3052 3051 3050 3049 3048 3047 3045 3043 3042 3040 3038 3036 3033 3031 3028 3026 3023 3020 3018 3016 3014 3012 3011 3009 3008 3007
3002 3001 2999 2998 2997 2997 2996 2996 2996 2996 2998 2999 3000 3002 3005 3007 3010 3012 3015 3018 3021 3024 3027 3030 3032 3034 3036 3038 3039 3041 3043 3044 3045 3047 3048 3050 3051 3053 3054 3054 3054 3054 3055 3055 3055 3055 3055 3055 3055 3054 3054 3053 3053 3052 3052 3051 3051 3050 3050 3049 3048 3047 3046 3045 3044 3042 3041 3039 3037 3035 3033 3030 3028 3025 3022 3020 3017 3014 3013 3011 3010 3008 3007 3006 3004
2997 2995 2994 2993 2991 2990 2989 2988 2988 2989 2990 2991 2993 2995 2998 3001 3004 3006 3008 3011 3014 3018 3021 3024 3026 3028 3030 3032 3034 3035 3037 3038 3040 3042 3044 3046 3048 3050 3050 3050 3050 3050 3051 3051 3052 3052 3052 3052 3052 3051 3051 3050 3050 3049 3049 3049 3048 3048 3047 3047 3046 3045 3044 3043 3041 3040 3038 3036 3034 3032 3030 3027 3025 3022 3019 3017 3014 3012 3010 3008 3007 3006 3004 3003 3002
2993 2991 2989 2987 2985 2983 2982 2981 2980 2981 2982 2984 2986 2989 2992 2995 2998 3001 3003 3005 3008 3012 3015 3018 3021 3023 3025 3027 3029 3030 3031 3033 3036 3038 3041 3043 3045 3046 3046 3046 3046 3047 3048 3048 3049 3049 3049 3049 3049 3048 3048 3048 3047 3047 3047 3046 3046 3045 3045 3044 3044 3043 3042 3041 3039 3038 3036 3034 3032 3030 3027 3024 3022 3019 3016 3014 3011 3009 3007 3006 3004 3003 3001 3000 2999
2989 2986 2984 2981 2979 2977 2976 2975 2974 2974 2975 2977 2979 2983 2986 2989 2992 2996 2998 3001 3003 3006 3010 3013 3016 3019 3021 3023 3024 3026 3027 3030 3033 3036 3038 3040 3041 3042 3042 3042 3043 3044 3044 3045 3046 3046 3046 3046 3046 3046 3045 3045 3045 3045 3044 3044 3043 3043 3043 3042 3042 3041 3040 3038 3037 3036 3034 3032 3030 3027 3025 3022 3019 3017 3014 3011 3009 3006 3005 3003 3002 3000 2999 2998 2996
2985 2982 2979 2976 2974 2972 2971 2970 2969 2968 2969 2971 2973 2976 2980 2984 2987 2991 2994 2997 2999 3002 3005 3008 3011 3014 3017 3019 3021 3022 3024 3027 3030 3032 3034 3035 3037 3038 3038 3039 3040 3041 3041 3042 3043 3044 3044 3044 3044 3043 3043 3042 3042 3042 3042 3042 3041 3041 3040 3040 3039 3039 3038 3036 3035 3034 3032 3030 3027 3025 3022 3020 3017 3014 3011 3009 3006 3004 3002 3001 2999 2998 2997 2995 2994
2983 2980 2977 2973 2970 2968 2966 2966 2965 2964 2965 2966 2968 2971 2976 2980 2983 2987 2990 2993 2996 2998 3001 3004 3007 3010 3012 3015 3018 3019 3021 3023 3026 3028 3030 3032 3033 3034 3035 3036 3037 3038 3039 3040 3041 3041 3041 3041 3041 3041 3040 3040 3040 3040 3040 3039 3039 3039 3038 3038 3037 3037 3036 3035 3033 3031 3030 3027 3025 3023 3020 3017 3014 3011 3009 3006 3004 3002 3001 2999 2997 2996 2995 2993 2992
2981 2978 2974 2971 2968 2965 2963 2962 2961 2961 2962 2963 2965 2967 2971 2975 2979 2982 2986 2990 2992 2995 2998 3001 3004 3007 3009 3012 3015 3017 3018 3020 3022 3025 3027 3029 3030 3031 3032 3033 3034 3035 3036 3037 3038 3038 3039 3039 3038 3038 3038 3038 3038 3037 3037 3037 3037 3037 3036 3036 3035 3035 3034 3033 3031 3029 3028 3025 3023 3020 3018 3015 3012 3009 3007 3005 3003 3001 2999 2997 2996 2994 2993 2992 2991
2979 2976 2972 2969 2966 2963 2961 2959 2958 2958 2959 2960 2962 2964 2968 2972 2976 2979 2984 2988 2990 2992 2996 2999 3002 3004 3007 3010 3011 3013 3015 3017 3019 3022 3024 3026 3027 3028 3029 3030 3031 3033 3033 3034 3035 3036 3036 3036 3036 3036 3036 3035 3035 3035 3035 3035 3035 3035 3035 3034 3034 3033 3032 3031 3029 3028 3026 3024 3021 3019 3017 3014 3011 3008 3006 3003 3001 3000 2998 2996 2994 2993 2991 2990 2989
2978 2975 2972 2969 2965 2962 2960 2958 2957 2957 2957 2958 2959 2962 2966 2971 2975 2979 2983 2986 2988 2990 2994 2997 3000 3003 3006 3007 3008 3010 3012 3014 3016 3019 3020 3021 3023 3024 3026 3027 3029 3030 3030 3031 3032 3033 3033 3034 3034 3034 3033 3033 3033 3033 3033 3033 3033 3033 3033 3033 3033 3032 3031 3029 3028 3026 3024 3022 3020 3018 3015 3013 3010 3007 3005 3003 3001 2999 2997 2995 2993 2991 2990 2988 2987
2979 2975 2972 2970 2966 2963 2960 2958 2957 2956 2956 2956 2958 2962 2966 2970 2975 2978 2981 2984 2987 2990 2992 2995 2998 3001 3004 3006 3007 3008 3010 3012 3014 3016 3016 3017 3019 3022 3023 3024 3026 3027 3028 3029 3030 3030 3031 3031 3032 3031 3031 3031 3031 3031 3032 3032 3032 3032 3032 3032 3031 3030 3029 3028 3027 3025 3023 3021 3019 3017 3014 3012 3009 3007 3004 3002 3000 2997 2995 2993 2991 2990 2988 2986 2985
2980 2977 2974 2971 2968 2965 2962 2960 2958 2957 2957 2957 2959 2963 2967 2971 2974 2977 2980 2983 2987 2990 2991 2993 2996 2999 3001 3004 3005 3007 3008 3010 3012 3013 3014 3016 3018 3020 3021 3022 3023 3024 3026 3026 3027 3028 3029 3029 3029 3029 3029 3029 3030 3030 3030 3031 3031 3031 3031 3030 3030 3029 3028 3027 3026 3024 3022 3020 3018 3016 3013 3011 3009 3006 3004 3001 2999 2996 2994 2992 2990 2988 2986 2985 2983
2981 2979 2976 2973 2971 2969 2966 2964 2961 2960 2960 2961 2963 2965 2969 2972 2975 2977 2980 2984 2987 2989 2991 2993 2995 2997 3000 3002 3003 3005 3006 3008 3009 3011 3013 3015 3016 3018 3019 3020 3021 3023 3024 3024 3025 3026 3027 3027 3027 3027 3028 3028 3028 3029 3029 3030 3030 3030 3030 3029 3029 3028 3027 3026 3025 3023 3021 3020 3017 3015 3013 3011 3008 3006 3003 3000 2998 2995 2993 2990 2988 2987 2985 2983 2982
2983 2981 2978 2976 2974 2972 2970 2968 2966 2965 2965 2965 2967 2969 2972 2974 2977 2979 2982 2985 2987 2989 2990 2992 2994 2996 2998 3000 3001 3003 3004 3006 3007 3009 3011 3013 3015 3016 3017 3019 3020 3021 3021 3022 3023 3024 3025 3025 3025 3026 3026 3027 3027 3028 3028 3029 3029 3029 3029 3028 3028 3027 3026 3025 3024 3022 3021 3019 3017 3015 3012 3010 3007 3005 3002 3000 2997 2994 2992 2990 2988 2986 2984 2982 2981
2985 2983 2981 2979 2977 2975 2973 2972 2971 2970 2970 2971 2972 2973 2975 2977 2978 2981 2983 2986 2988 2989 2991 2992 2994 2995 2997 2998 3000 3001 3003 3004 3006 3008 3010 3012 3013 3015 3016 3017 3018 3019 3020 3021 3022 3022 3023 3023 3024 3025 3025 3026 3026 3027 3027 3028 3028 3028 3028 3027 3027 3026 3025 3024 3023 3021 3020 3018 3016 3014 3012 3009 3007 3004 3002 3000 2997 2994 2992 2989 2987 2985 2983 2981 2980
2987 2985 2983 2981 2979 2978 2977 2976 2975 2974 2975 2975 2976 2977 2978 2979 2981 2983 2985 2986 2988 2989 2991 2992 2993 2994 2996 2997 2998 3000 3001 3003 3005 3007 3009 3010 3012 3013 3014 3015 3016 3018 3019 3020 3021 3021 3021 3022 3023 3024 3024 3025 3026 3026 3027 3027 3027 3027 3027 3026 3026 3025 3024 3023 3022 3020 3019 3017 3016 3014 3011 3009 3007 3004 3002 2999 2997 2994 2992 2989 2987 2985 2983 2981 2979
2990 2988 2985 2983 2982 2980 2979 2978 2978 2978 2978 2978 2979 2980 2981 2982 2983 2984 2986 2987 2988 2989 2991 2992 2992 2993 2994 2995 2997 2998 3000 3001 3003 3005 3007 3009 3010 3011 3013 3014 3015 3017 3018 3019 3019 3020 3021 3021 3022 3023 3023 3024 3025 3025 3025 3026 3026 3026 3025 3025 3025 3024 3023 3022 3021 3019 3018 3016 3015 3013 3011 3009 3007 3004 3002 2999 2997 2994 2992 2989 2987 2985 2982 2980 2978
2993 2991 2989 2987 2985 2983 2982 2981 2980 2980 2980 2981 2982 2982 2983 2984 2985 2986 2987 2988 2989 2990 2991 2991 2992 2992 2993 2994 2996 2997 2999 3001 3003 3005 3006 3008 3009 3010 3011 3013 3015 3016 3017 3018 3018 3019 3020 3021 3021 3022 3022 3023 3023 3024 3024 3024 3024 3024 3024 3024 3023 3023 3022 3020 3019 3018 3017 3015 3014 3012 3010 3008 3006 3004 3001 2999 2997 2994 2992 2989 2987 2985 2983 2980 2978
2995 2993 2992 2990 2988 2987 2985 2984 2984 2983 2983 2984 2984 2985 2985 2986 2987 2987 2988 2989 2990 2991 2991 2991 2992 2993 2994 2995 2996 2998 3000 3002 3003 3004 3006 3007 3008 3009 3011 3012 3014 3015 3016 3017 3018 3018 3019 3020 3020 3021 3021 3022 3022 3023 3023 3023 3023 3023 3023 3022 3022 3021 3020 3019 3018 3017 3016 3014 3013 3011 3009 3007 3005 3003 3001 2999 2997 2995 2992 2990 2987 2985 2983 2980 2978
2997 2996 2994 2993 2992 2991 2990 2989 2988 2988 2987 2987 2987 2988 2988 2988 2989 2989 2990 2991 2991 2992 2992 2993 2994 2994 2995 2996 2997 2999 3000 3002 3003 3004 3005 3006 3007 3009 3010 3011 3013 3014 3015 3016 3016 3017 3018 3018 3019 3020 3020 3021 3021 3021 3022 3022 3022 3022 3021 3021 3020 3020 3019 3018 3017 3015 3014 3013 3012 3010 3009 3007 3005 3003 3001 2999 2997 2995 2993 2990 2988 2985 2983 2981 2978